Regional Weather Roundup
Issued by NWS

Home | Current Version | Previous Version | Graphics & Text | Print | Product List | Glossary On
Versions: 1 2 3 4 5 6 7 8 9 10 11 12 13 14 15 16 17 18 19 20 21 22 23 24 25 26 27 28 29 30 31 32 33 34 35 36 37 38 39 40 41 42 43 44 45 46 47 48 49 50
000
ASUS43 KFSD 032010
RWRSD

WEATHER ROUNDUP FOR SOUTH DAKOTA
NATIONAL WEATHER SERVICE SIOUX FALLS SD
300 PM CDT TUE MAY 03 2016

NOTE: "FAIR" INDICATES FEW OR NO CLOUDS BELOW 12,000 FEET WITH NO
SIGNIFICANT WEATHER AND/OR OBSTRUCTIONS TO VISIBILITY.


SDZ001>005-009-010-012>017-032100-
NORTHWEST AND NORTH CENTRAL SOUTH DAKOTA

CITY           SKY/WX    TMP DP  RH WIND       PRES   REMARKS
BUFFALO          N/A     74  33  22 N14G23    30.02S
FAITH            N/A     74  35  24 N16G23    30.03S
MOBRIDGE       SUNNY     79  40  24 N18G25    29.93F
$$

SDZ012>016-024>037-041>051-057-063-072>074-032100-
SOUTHWEST AND SOUTH CENTRAL SOUTH DAKOTA

CITY           SKY/WX    TMP DP  RH WIND       PRES   REMARKS
RAPID CTY ARPT SUNNY     72  41  32 N21       30.08F
PIERRE         SUNNY     73  41  31 NW18G25   29.97F
CUSTER         SUNNY     66  29  24 NE9       30.16S
ELLSWORTH AFB  SUNNY     71  41  34 N16G25    30.08
PHILIP         SUNNY     74  40  29 NW13G23   30.02F
PINE RIDGE     SUNNY     69  33  26 N14G22    30.09F
WINNER         FAIR      71  43  36 NW13      30.01F
$$

SDZ004>011-016>023-039-040-032100-
NORTHEAST SOUTH DAKOTA

CITY           SKY/WX    TMP DP  RH WIND       PRES   REMARKS
ABERDEEN       SUNNY     77  38  24 NW24G32   29.87F
WATERTOWN      MOSUNNY   71  40  32 NW18G30   29.85F
BROOKINGS      MOSUNNY   70  41  34 NW16G26   29.87F
SISSETON         N/A     76  36  23 N30G40    29.80S
$$

SDZ017-020-022-023-036>040-048>070-032100-
SOUTHEAST SOUTH DAKOTA

CITY           SKY/WX    TMP DP  RH WIND       PRES   REMARKS
SIOUX FALLS    PTSUNNY   69  45  41 W16G33    29.90F
HURON          SUNNY     73  42  32 NW20G28   29.90F
CHAMBERLAIN    SUNNY     71  45  39 N13       29.98F
MITCHELL       SUNNY     71  46  40 NW24G30   29.93F
YANKTON        SUNNY     66  45  45 W17G29    29.95F
$$

ABBREVIATIONS USED IN REMARKS
   TC - TEMPERATURE IN CELSIUS
  WCI - WIND CHILL INDEX
   HX - HEAT INDEX
  VSB - VISIBILITY




USA.gov is the U.S. government's official web portal to all federal, state and local government web resources and services.